FW6343 Weather Reports


time (UTC)temp
F
wind
direction
speed
knots
gust
knots
rain 1hr
in
rain 24hr
in
rain mn
in
humidity
%
barometer
mb
20260504050410 49 0 0.0 0.0 0.00 0.01 0.00 70 1018.3
20260504044940 50 0 0.0 0.0 0.00 0.01 0.00 69 1018.1
20260504043354 51 0 0.0 0.0 0.00 0.01 0.00 68 1017.8
20260504041921 51 0 0.0 0.0 0.00 0.01 0.00 66 1018.1
20260504040406 52 0 0.0 0.0 0.00 0.01 0.00 63 1018.2
20260504035008 53 0 0.0 0.0 0.00 0.01 0.01 63 1018.1
20260504034843 53 0 0.0 0.0 0.00 0.01 0.01 63 1018.1
20260504033450 54 0 0.0 0.0 0.00 0.01 0.01 60 1018.0
20260504032006 54 0 0.0 0.0 0.00 0.01 0.01 59 1018.1
20260504031831 54 0 0.0 0.0 0.00 0.01 0.01 59 1018.1
20260504030427 55 0 0.0 0.0 0.00 0.01 0.01 58 1018.1
20260504024835 56 0 0.0 0.0 0.00 0.01 0.01 56 1017.9
20260504023403 56 0 0.0 0.0 0.00 0.01 0.01 55 1017.7
20260504021936 57 0 0.0 0.0 0.00 0.01 0.01 54 1017.6
20260504020515 58 0 0.0 0.0 0.00 0.01 0.01 53 1017.4
20260504020326 58 0 0.0 0.0 0.00 0.01 0.01 53 1017.4
20260504014924 59 0 0.0 0.0 0.00 0.01 0.01 52 1017.3
20260504013445 60 0 0.0 0.0 0.00 0.01 0.01 50 1017.0
20260504013325 60 0 0.0 0.0 0.00 0.01 0.01 50 1017.0
20260504011911 61 0 0.0 0.0 0.00 0.01 0.01 49 1016.9
20260504010428 62 0 0.0 0.0 0.00 0.01 0.01 48 1016.7
20260504005041 63 0 0.0 0.0 0.00 0.01 0.01 46 1016.7
20260504004916 63 0 0.0 0.0 0.00 0.01 0.01 46 1016.7
20260504003434 64 0 0.0 0.9 0.00 0.01 0.01 43 1016.4
20260504001919 65 0 0.0 0.9 0.00 0.01 0.01 41 1016.2
20260504000434 66 0 0.0 2.6 0.00 0.01 0.01 40 1016.3
20260503235007 67 0 0.0 4.3 0.00 0.01 0.01 39 1016.1
20260503233430 68 0 0.9 7.0 0.00 0.01 0.01 40 1016.1
20260503231945 69 219 0.9 6.1 0.00 0.01 0.01 39 1016.1
20260503230411 69 198 1.7 8.7 0.00 0.01 0.01 37 1016.2
20260503224853 70 226 2.6 9.6 0.00 0.01 0.01 35 1016.2
20260503223353 71 0 0.0 8.7 0.00 0.01 0.01 34 1016.3
20260503221857 71 0 0.9 7.8 0.00 0.01 0.01 34 1016.3
20260503220356 71 0 2.6 9.6 0.00 0.01 0.01 31 1016.3
20260503214936 71 217 2.6 8.7 0.00 0.02 0.01 32 1016.5
20260503213353 71 240 2.6 7.8 0.00 0.02 0.01 33 1016.5
20260503212038 71 169 4.3 9.6 0.00 0.02 0.01 32 1016.6
20260503211912 71 169 4.3 9.6 0.00 0.02 0.01 32 1016.6
20260503210454 70 265 2.6 9.6 0.00 0.02 0.01 35 1016.8
20260503205029 70 227 3.5 7.0 0.00 0.02 0.01 33 1017.0
20260503204909 70 227 3.5 7.0 0.00 0.02 0.01 33 1017.0
20260503203508 70 246 0.9 9.6 0.00 0.02 0.01 35 1017.3
20260503202010 69 219 2.6 9.6 0.00 0.02 0.01 35 1017.5
20260503201830 69 219 2.6 9.6 0.00 0.02 0.01 35 1017.5
20260503200338 70 207 2.6 8.7 0.00 0.02 0.01 32 1018.0
20260503194911 69 196 0.9 8.7 0.00 0.02 0.01 37 1018.3
20260503193508 69 211 6.1 9.6 0.00 0.02 0.01 35 1018.6
20260503192039 68 186 1.7 8.7 0.00 0.02 0.01 37 1018.8
20260503191917 68 186 1.7 8.7 0.00 0.02 0.01 37 1018.8
20260503190417 67 187 0.9 7.8 0.00 0.02 0.01 40 1019.1
20260503184914 66 180 3.5 7.0 0.00 0.02 0.01 38 1019.4
20260503183354 67 306 3.5 9.6 0.00 0.02 0.01 40 1019.4
20260503181934 66 188 3.5 7.8 0.00 0.02 0.01 39 1019.6
20260503181830 66 188 3.5 7.8 0.00 0.02 0.01 39 1019.6
20260503180540 65 123 4.3 10.4 0.00 0.02 0.01 38 1019.7
20260503180350 65 123 4.3 10.4 0.00 0.02 0.01 38 1019.7
20260503175029 66 219 1.7 7.8 0.00 0.02 0.01 39 1019.8
20260503173403 63 0 0.0 7.0 0.00 0.02 0.01 44 1019.9
20260503172020 63 0 2.6 8.7 0.00 0.02 0.01 41 1020.2
20260503171827 63 0 2.6 8.7 0.00 0.02 0.01 41 1020.2
20260503170332 63 186 1.7 8.7 0.00 0.02 0.01 42 1020.5
20260503150359 59 0 0.0 4.3 0.00 0.02 0.01 46 1021.3
20260503130423 51 0 0.0 0.9 0.01 0.02 0.01 69 1021.0
20260503110516 39 0 0.0 0.0 0.00 0.01 0.00 85 1020.0
20260503110347 39 0 0.0 0.0 0.00 0.01 0.00 85 1020.0
20260503090340 40 0 0.0 0.0 0.00 0.01 0.00 83 1018.7
20260503080436 42 0 0.0 0.0 0.00 0.01 0.00 82 1018.1
20260503071958 42 0 0.0 0.0 0.00 0.01 0.00 81 1017.7
20260503070540 42 0 0.0 0.0 0.00 0.01 0.00 81 1017.5
20260503070347 42 0 0.0 0.0 0.00 0.01 0.00 81 1017.5